Location: El Chorro
(10.0985°N, 67.3542°W)
Time: 19:07:49
(UTC+00:00)

SL-19 R/B - Pass Details

Date: 15 November 2025
Orbit: 795 x 1008 km, 99.6° (Epoch: 06 December)

Event Time Altitude Azimuth Distance (km) Brightness Sun altitude
Rises 23:00:17 0° 153° (SSE) 3,428 7.3 -14.0°
Reaches altitude 10° 23:02:48 10° 146° (SSE) 2,462 6.5 -14.6°
Maximum altitude 23:07:54 44° 76° (ENE) 1,128 4.4 -15.8°
Drops below altitude 10° 23:12:50 10° 5° (N) 2,375 6.3 -17.0°
Sets 23:15:13 0° 359° (N) 3,293 7.1 -17.6°
